metlocid,date_time,avg_airt3asp,std_airt3asp,min_airt3asp,max_airt3asp,n_airt3asp,n_comments
CAAM,11/1/07,-5.219032288,1.484527611,-8.74,-3.5,31,2
CAAM,12/1/07,-3.436848114,3.519243326,-12.17,4.36,2976,0
CAAM,1/1/08,-3.244685461,2.315773143,-8.97,2.61,2909,3
CAAM,2/1/08,-12.03119854,3.042312848,-18.45,-4.71,1919,0
CAAM,11/1/08,-10.29056282,3.646162426,-20.15,-1.06,2523,0
CAAM,12/1/08,-3.236673388,2.553042996,-10.34,3.31,2976,0
CAAM,1/1/09,-3.337768901,2.226936988,-8.83,1.26,1627,0
CAAM,2/1/09,-12.38169642,5.171108182,-23.8,-1.61,2688,0
CAAM,3/1/09,-19.89863575,4.552537817,-30.12,-6.8,2976,0
CAAM,4/1/09,-18.06088888,4.631037696,-30.15,-8.76,2880,0
CAAM,5/1/09,-25.06265516,7.254040238,-35.87,-10.46,2030,377
CAAM,6/1/09,,,,,0,1671
CAAM,7/1/09,,,,,0,2945
CAAM,8/1/09,,,,,0,2965
CAAM,9/1/09,,,,,0,2008
CAAM,11/1/09,-4.152167663,2.290052276,-13.44,3.6,1670,0
CAAM,12/1/09,-3.616169359,2.280302631,-9.4,2.77,2976,0
CAAM,1/1/10,-4.245836663,2.462008678,-9.53,1.67,2976,288
CAAM,2/1/10,-8.859999657,0,-8.86,-8.86,2688,2688
CAAM,3/1/10,-8.859999657,0,-8.86,-8.86,2976,2976
CAAM,4/1/10,-8.859999657,0,-8.86,-8.86,2880,2880
CAAM,5/1/10,-8.859999657,0,-8.86,-8.86,2976,2976
CAAM,6/1/10,-8.859999657,0,-8.86,-8.86,2880,2880
CAAM,7/1/10,-8.859999657,0,-8.86,-8.86,2976,2976
CAAM,8/1/10,-8.859999657,0,-8.86,-8.86,2976,2976
CAAM,9/1/10,-8.859999657,0,-8.86,-8.86,2880,2880
CAAM,10/1/10,-8.859999657,0,-8.86,-8.86,2976,2976
CAAM,11/1/10,-8.227315966,2.997083186,-16.57,2.33,2880,0
CAAM,12/1/10,-1.61585218,3.572412119,-11.21,10.01,2963,13
CAAM,1/1/11,-5.222772179,3.046094917,-12.32,2.24,2976,0
CAAM,2/1/11,-9.076257438,2.599743759,-15.79,-2.39,2688,0
CAAM,3/1/11,-17.71222447,3.879253103,-27.03,-7.18,2976,0
CAAM,4/1/11,-20.49502084,6.608764138,-32.51,-2.74,2880,0
CAAM,5/1/11,-21.97719086,5.589903403,-33.55,-8.02,2976,0
CAAM,6/1/11,-20.77710763,7.335406801,-33.67,-6.4,2880,0
CAAM,7/1/11,-19.02370967,6.595069268,-36.02,-3.27,2976,0
CAAM,8/1/11,-20.19406922,7.640800709,-35.09,-3.47,2976,0
CAAM,9/1/11,-23.58431596,8.01516064,-37.91,-8.57,2880,0
CAAM,10/1/11,-18.33194555,4.96989637,-28.96,-4.65,2976,0
CAAM,11/1/11,-6.971489585,3.495589758,-22.91,1.31,2880,0
CAAM,12/1/11,-3.018756724,2.85970602,-9.25,7.56,2976,0
CAAM,1/1/12,-1.982740114,1.55110784,-5.39,2.38,354,0